Regional Weather Roundup
Issued by NWS

Home | Current Version | Previous Version | Text Only | Print | Product List | Glossary On
Versions: 1 2 3 4 5 6 7 8 9 10 11 12 13 14 15 16 17 18 19 20 21 22 23 24 25 26 27 28 29 30 31 32 33 34 35 36 37 38 39 40 41 42 43 44 45 46 47 48 49 50
000
ASUS44 KFWD 251115
RWRTX
NORTH TEXAS HOURLY WEATHER ROUNDUP
NATIONAL WEATHER SERVICE FORT WORTH TX
600 AM CDT SAT OCT 25 2014

NOTE: "FAIR" INDICATES FEW OR NO CLOUDS BELOW 12,000 FEET WITH NO
SIGNIFICANT WEATHER AND/OR OBSTRUCTIONS TO VISIBILITY.

TXZ118-119-251200-
DALLAS/FORT WORTH METROPLEX

CITY           SKY/WX    TMP DP  RH WIND       PRES   REMARKS
DFW AIRPORT    CLEAR     65  58  78 S9        30.10R
DALLAS LOVE    CLEAR     66  58  75 SE8       30.11R
FTW MEACHAM    CLEAR     66  58  75 S6        30.09R
DAL-EXECUTIVE  CLEAR     66  57  72 VRB5      30.11R
FTW-ALLIANCE   CLEAR     63  58  83 S5        30.09R
FTW-NAS-JRB    CLEAR     69  57  65 S5        30.14R
FTW-SPINKS     CLEAR     65  58  76 S7        30.12S
ARLINGTON      CLEAR     64  57  78 S7        30.11R
GRAND PRAIRIE  CLEAR     65  59  80 S6        30.12S
ADDISON        CLEAR     66  57  72 S8        30.11F
LANCASTER      CLEAR     59  55  87 CALM      30.13S
$$

TXZ091>094-102>105-117-120-121-131>134-251200-
NORTH CENTRAL TEXAS

CITY           SKY/WX    TMP DP  RH WIND       PRES   REMARKS
SHRMAN/DENISON CLEAR     65  60  84 S8        30.11R
GAINESVILLE    CLEAR     60  58  92 S5        30.12R
BOWIE          CLEAR     59  58  97 CALM      30.09S FOG
BRIDGEPORT     CLEAR     58  58 100 CALM      30.11R
DECATUR        CLEAR     65  58  78 S6        30.10R
DENTON         CLEAR     62  58  86 SE6       30.10R
MCKINNEY       CLEAR     61  58  90 S6        30.11R
GREENVILLE     CLEAR     59  55  88 CALM      30.13R
ROCKWALL       CLEAR     62  59  88 S8        30.11S
TERRELL        CLEAR     60  58  92 S3        30.13R
WAXAHACHIE     CLEAR     61  57  88 SE5       30.13S
CLEBURNE       CLEAR     63  61  94 S7        30.13S
GRANBURY       CLEAR     66  58  76 CALM      30.12R
$$

TXZ083>090-098>101-113>116-127>130-139>142-154-155-251200-
WESTERN NORTH TEXAS

CITY           SKY/WX    TMP DP  RH WIND       PRES   REMARKS
WICHITA FALLS  CLEAR     60  56  86 SE5       30.07R
WF-KICKAPOO    CLEAR     61  56  83 W5        30.09R
VERNON         CLEAR     61  54  77 CALM      30.08S
ABILENE        CLEAR     66  56  70 SW5       30.13R
ABILENE-DYESS  CLEAR     68  56  65 S3        30.11S
BRECKENRIDGE   CLEAR     65  57  76 S8        30.10S
GRAHAM         CLEAR     63  58  85 CALM      30.09R
MINERAL WELLS  CLEAR     62  58  86 SE7       30.09R FOG
STEPHENVILLE   CLEAR     62  57  84 S3        30.14S
COMANCHE       CLEAR     67  59  75 SW12      30.12S
BROWNWOOD      MOCLDY    57  55  94 CALM      30.15R
COLEMAN        CLEAR     59  56  91 CALM      30.15S
BRADY          CLEAR     61  55  82 S5        30.15S
$$

TXZ143>147-156>162-174-175-251200-
CENTRAL TEXAS

CITY           SKY/WX    TMP DP  RH WIND       PRES   REMARKS
WACO           CLEAR     62  58  86 S7        30.13R
WACO-MCGREGOR  CLEAR     61  52  72 S3        30.14S
HILLSBORO      CLEAR     63  56  78 S7        30.13S
CORSICANA      CLEAR     62  57  83 S7        30.15R
MEXIA          CLEAR     59  56  89 CALM      30.14R
HEARNE         CLEAR     57  55  94 CALM      30.16R
CAMERON        CLEAR     60  57  88 S3        30.14R
TEMPLE         CLEAR     61  54  77 S6        30.12S
KILLEEN        CLEAR     65  57  75 S7        30.13R
KILLEEN-SKYLRK CLEAR     63  52  67 CALM      30.11R
FORT HOOD      CLEAR     66  58  75 CALM      30.13S
GATESVILLE     CLEAR     64  57  77 CALM      30.15R
HAMILTON       CLEAR     65  57  77 SW9       30.14S
LAMPASAS       CLEAR     63  59  86 CALM      30.12S
$$

TXZ095>097-106>112-122>126-135>138-148>153-164>167-251200-
EAST TEXAS

CITY           SKY/WX    TMP DP  RH WIND       PRES   REMARKS
PARIS          CLEAR     59  52  77 S5        30.13R
SULPHUR SPRNGS CLEAR     63  58  84 S3        30.14S
MOUNT PLEASANT CLEAR     57  57  98 CALM      30.15R
MINEOLA        CLEAR     57  57 100 CALM      30.14R
TYLER          CLEAR     60  57  89 S6        30.13R
LONGVIEW       CLEAR     59  55  87 S6        30.13R
MARSHALL       CLEAR     56  54  92 CALM      30.15S
ATHENS         CLEAR     55  55 100 CALM      30.13S
PALESTINE      CLEAR     61  57  88 CALM      30.16R
JACKSONVILLE   CLEAR     63  56  80 S6        30.16S
HENDERSON      CLEAR     54  54 100 CALM      30.15S
NACOGDOCHES    CLEAR     52  46  82 CALM      30.15S
LUFKIN         CLEAR     55  51  86 E3        30.14S
$$

SUPPLEMENTAL OBSERVATIONS (CENTRAL)

CITY           SKY/WX    TMP DP  RH WIND       PRES   REMARKS
LAKE TEXOMA      N/A     68  59  73 S2          N/A
CADDO GRASSLND   N/A     64  57  77 S8          N/A
PAT MAYSE LAKE   N/A     63  59  88 E3          N/A
GREENVILLE       N/A     63  57  82 S6          N/A
CEDAR HILL       N/A     68  57  68 S6          N/A
ATHENS           N/A     63  55  77 S5          N/A
LAKE LIMESTONE   N/A     57  54  88 SE1         N/A
MCGREGOR         N/A     59  55  88 SW3         N/A
$$

SUPPLEMENTAL OBSERVATIONS (WEST)

CITY           SKY/WX    TMP DP  RH WIND       PRES   REMARKS
MILLERS CREEK    N/A     61  50  67 SW6         N/A
LBJ GRASSLAND    N/A     64  57  77 SE6         N/A
GRANBURY         N/A     64  57  77 E1          N/A
COMANCHE         N/A     66  55  68 SW12        N/A
HAMBY            N/A     64  55  72 S6          N/A
IVIE RESERVOIR   N/A     59  54  82 N1          N/A
COLORADO BEND    N/A     64  55  72 SW6         N/A
$$

SUPPLEMENTAL OBSERVATIONS (EAST)

CITY           SKY/WX    TMP DP  RH WIND       PRES   REMARKS
CLARKSVILLE      N/A     55  52  88 CALM        N/A
CADDO LAKE       N/A     54  52  94 CALM        N/A
GILMER           N/A     57  54  88 S1          N/A
HENDERSON        N/A     54  50  87 CALM        N/A
LUFKIN           N/A     52  50  93 MISG        N/A
N SABINE NF      N/A     46  43  87 MISG        N/A
S SABINE NF      N/A     50  48  93 CALM        N/A
$$

SUPPLEMENTAL OBSERVATIONS ARE A COLLECTION OF AUTOMATED INSTRUMENTS
THAT ARE MAINTAINED BY A VARIETY OF FEDERAL AND STATE AGENCIES.
CERTAIN ELEMENTS...SUCH AS HUMIDITY VALUES AND SUSTAINED WIND
SPEEDS...MAY BE APPROXIMATED.




USA.gov is the U.S. government's official web portal to all federal, state and local government web resources and services.